Weather History for KSUN - October, 2011

Change the Weather History Date:

Sunday, October 9, 2011

  Actual Average Record
Temperature  
Mean Temperature 44 °F -  
Max Temperature 53 °F 61 °F 71 °F (2000)
Min Temperature 35 °F 34 °F 28 °F (2008)
Degree Days  
Heating Degree Days 21    
Moisture  
Dew Point 34 °F    
Average Humidity 77    
Maximum Humidity 87    
Minimum Humidity 51    
Precipitation  
Precipitation 0.00 in - - ()
Sea Level Pressure  
Sea Level Pressure 30.17 in    
Wind  
Wind Speed 9 mph (NW)    
Max Wind Speed 14 mph    
Max Gust Speed 21 mph    
Visibility 10 miles    
Events      
Averages and records for this station are not official NWS values.
T = Trace of Precipitation, MM = Missing Value Source: NWS Daily Summary

Daily Weather History Graph

Daily Weather History Graph

Search for Another Location

Airport or City:

Trip Planner

Search our weather history database for the weather conditions in past years. The results will help you decide how hot, cold, wet, or windy it might be!

Date:

Astronomy

Oct. 09, 2011 Rise Set
Actual Time 7:43 AM MDT 7:04 PM MDT
Civil Twilight 7:15 AM MDT 7:33 PM MDT
Nautical Twilight 6:42 AM MDT 8:06 PM MDT
Astronomical Twilight 6:08 AM MDT 8:39 PM MDT
Moon 5:44 PM MDT (10/9) 5:29 AM MDT (10/9)
Length of Visible Light 12h 17m
Length of Day
11h 20m
Waxing Gibbous, 95% of the Moon is Illuminated
Oct 9
Waxing Gibbous
Oct 11
Full
Oct 19
Last Quarter
Oct 26
New
Nov 2
First Quarter

Hourly Weather History & Observations

Time (MDT) Temp. Windchill Dew Point Humidity Pressure Visibility Wind Dir Wind Speed Gust Speed Precip Events Conditions
12:15 AM 37.4 °F 30.8 °F 33.8 °F 87% 30.26 in 10.0 mi NW 9.2 mph - N/A   Mostly Cloudy
12:35 AM 37.4 °F 31.4 °F 32.0 °F 81% 30.26 in 10.0 mi NW 8.1 mph - N/A   Mostly Cloudy
12:55 AM 37.4 °F 31.4 °F 33.8 °F 87% 30.26 in 10.0 mi NW 8.1 mph - N/A   Overcast
1:35 AM 37.4 °F 31.4 °F 32.0 °F 81% 30.26 in 10.0 mi NW 8.1 mph - N/A   Mostly Cloudy
1:55 AM 37.4 °F 31.4 °F 32.0 °F 81% 30.26 in 10.0 mi WNW 8.1 mph - N/A   Overcast
2:15 AM 37.4 °F 31.4 °F 32.0 °F 81% 30.25 in 10.0 mi NW 8.1 mph - N/A   Overcast
2:35 AM 37.4 °F 31.4 °F 33.8 °F 87% 30.25 in 10.0 mi NW 8.1 mph - N/A   Mostly Cloudy
2:55 AM 37.4 °F 30.8 °F 33.8 °F 87% 30.24 in 10.0 mi NNW 9.2 mph - N/A   Mostly Cloudy
3:15 AM 37.4 °F 31.4 °F 32.0 °F 81% 30.24 in 10.0 mi NW 8.1 mph - N/A   Scattered Clouds
3:35 AM 37.4 °F 32.1 °F 32.0 °F 81% 30.23 in 10.0 mi NW 6.9 mph - N/A   Clear
3:55 AM 37.4 °F 30.3 °F 32.0 °F 81% 30.23 in 10.0 mi NW 10.4 mph - N/A   Clear
4:15 AM 37.4 °F 29.3 °F 32.0 °F 81% 30.22 in 10.0 mi NW 12.7 mph - N/A   Clear
4:35 AM 37.4 °F 29.8 °F 32.0 °F 81% 30.22 in 10.0 mi NW 11.5 mph - N/A   Clear
5:15 AM 35.6 °F 27.5 °F 32.0 °F 87% 30.21 in 10.0 mi NW 11.5 mph - N/A   Clear
5:35 AM 35.6 °F 27.5 °F 32.0 °F 87% 30.20 in 10.0 mi NW 11.5 mph - N/A   Clear
5:55 AM 35.6 °F 26.6 °F 32.0 °F 87% 30.20 in 10.0 mi NW 13.8 mph 20.7 mph N/A   Clear
6:15 AM 35.6 °F 27.5 °F 32.0 °F 87% 30.20 in 10.0 mi NW 11.5 mph 16.1 mph N/A   Clear
6:35 AM 35.6 °F 27.5 °F 32.0 °F 87% 30.20 in 10.0 mi WNW 11.5 mph - N/A   Clear
6:48 AM 35.6 °F 26.6 °F 32.0 °F 87% 30.19 in 7.0 mi WNW 13.8 mph - N/A   Clear
6:55 AM 35.6 °F 27.5 °F 32.0 °F 87% 30.19 in 10.0 mi NW 11.5 mph - N/A   Clear
7:47 AM 35.6 °F 29.2 °F 30.2 °F 81% 30.19 in 7.0 mi WNW 8.1 mph - N/A   Clear
8:47 AM 35.6 °F 28.6 °F 30.2 °F 81% 30.20 in 7.0 mi WNW 9.2 mph - N/A   Clear
9:47 AM 41.0 °F 35.2 °F 33.8 °F 76% 30.19 in 7.0 mi NW 9.2 mph - N/A   Clear
10:47 AM 44.6 °F 43.1 °F 33.8 °F 66% 30.17 in 7.0 mi NNW 3.5 mph - N/A   Clear
11:49 AM 50.0 °F - 35.6 °F 58% 30.15 in 10.0 mi ESE 6.9 mph - N/A   Partly Cloudy
12:47 PM 51.8 °F - 35.6 °F 54% 30.13 in 10.0 mi SE 9.2 mph - N/A   Partly Cloudy
1:47 PM 53.6 °F - 37.4 °F 54% 30.11 in 10.0 mi ESE 8.1 mph - N/A   Scattered Clouds
2:47 PM 53.6 °F - 35.6 °F 51% 30.09 in 10.0 mi ESE 6.9 mph - N/A   Scattered Clouds
3:47 PM 53.6 °F - 37.4 °F 54% 30.06 in 10.0 mi SE 8.1 mph - N/A   Partly Cloudy
5:47 PM 53.6 °F - 35.6 °F 51% 30.04 in 10.0 mi SE 5.8 mph - N/A   Clear
6:47 PM 48.2 °F - 39.2 °F 71% 30.04 in 10.0 mi Calm Calm - N/A   Clear
7:47 PM 44.6 °F - 37.4 °F 76% 30.03 in 10.0 mi Calm Calm - N/A   Clear
8:50 PM 44.6 °F - 37.4 °F 76% 30.04 in 10.0 mi Calm Calm - N/A   Clear
10:47 PM 42.8 °F 39.3 °F 35.6 °F 76% 30.04 in 10.0 mi WNW 5.8 mph - N/A   Clear
11:15 PM 41.0 °F 35.2 °F 35.6 °F 81% 30.03 in 10.0 mi WNW 9.2 mph - N/A   Clear
11:35 PM 41.0 °F 35.2 °F 35.6 °F 81% 30.03 in 10.0 mi WNW 9.2 mph - N/A   Clear
11:55 PM 41.0 °F 36.4 °F 35.6 °F 81% 30.03 in 10.0 mi NW 6.9 mph - N/A   Clear